[[{"header":{"parameterUnit":"m.s-1","parameterCategory":1,"la1":30.2991,"la2":30.254,"lo1":-89.0895,"lo2":-89.0444,"dy":0.0017,"dx":0.0017,"nx":28,"ny":28,"refTime":"2025-06-06T21:00:00:Z","depth":0,"parameterNumber":2,"parameterNumberName":"U-component_of_WINDS"},"data":[0,0,0,0,0,0,0,0,0,0,0,0,0,0,0,0,0,0,0,0,0,0,0,0,0,0,0,0,0,0,0,0,0,0,0,0,0,0,0,0,0,0,0,0,0,0,0,0,0,0,0,0,0,0,0,0,0,0,3.493,3.493,0,3.4991,3.4992,3.4993,3.4983,3.4982,3.4981,3.498,3.5048,3.505,3.5053,0,0,0,0,0,0,0,0,0,0,0,0,0,3.4809,3.4811,3.493,3.493,3.4931,3.4991,3.4992,3.4993,3.4983,3.4982,3.4981,3.498,3.5047,3.505,3.5053,0,0,0,0,0,0,0,0,0,0,0,0,0,3.4865,3.4812,3.4929,3.4934,3.4935,3.4991,3.4992,3.4993,3.4984,3.4982,3.4981,3.4979,3.5046,3.505,3.5054,3.5111,0,0,3.5066,3.5068,0,0,0,0,0,0,0,0,3.4862,3.4869,3.4932,3.4933,3.4935,3.4978,3.4974,3.5033,3.4984,3.4965,3.498,3.4978,3.5026,3.5032,3.5047,3.5114,3.5117,3.5067,3.5069,3.5071,3.5072,0,0,0,0,0,0,0,3.4858,3.4867,3.4954,3.4933,3.4935,3.4934,3.494,3.4985,3.5004,3.4967,3.4966,3.4973,3.5026,3.5043,3.5048,3.5118,3.5067,3.507,3.5073,3.5075,3.5237,3.5238,0,0,0,0,0,0,3.4852,3.4863,3.4952,3.4956,3.4893,3.4937,3.4944,3.4966,3.5003,3.5007,3.4975,3.4973,3.5036,3.5043,3.5051,3.512,3.5071,3.5075,3.5077,3.5235,3.5237,3.5239,0,0,0,0,0,0,3.485,3.486,3.495,3.491,3.4921,3.4941,3.4965,3.4968,3.4984,3.5009,3.5013,3.4988,3.5035,3.5045,3.5096,3.5122,3.5077,3.5081,3.5233,3.5236,3.5238,3.526,0,0,0,0,0,0,3.4846,3.4859,3.488,3.491,3.4923,3.4993,3.4967,3.497,3.4991,3.4989,3.5022,3.5027,3.5035,3.509,3.51,3.5127,3.5084,3.523,3.5234,3.5237,3.5257,3.5263,3.5268,0,0,0,0,0,3.4842,3.4885,3.4881,3.4892,3.4949,3.4994,3.5002,3.5009,3.4993,3.5015,3.5031,3.5025,3.5118,3.5095,3.5107,3.5136,3.5229,3.5233,3.5237,3.5254,3.5262,3.5268,0,0,0,0,0,0,3.4858,3.4888,3.4885,3.4938,3.4964,3.4992,3.502,3.5017,3.5048,3.5045,3.5055,3.5062,3.5114,3.513,3.5104,3.5194,3.5171,3.5178,3.5181,3.5188,3.5194,3.5188,3.5087,0,0,0,0,0,3.4868,3.49,3.4926,3.497,3.4983,3.4999,3.5019,3.5023,3.505,3.5061,3.5081,3.5109,3.5144,3.5167,3.5201,3.526,3.5267,3.5286,3.5291,3.5296,3.5301,3.5334,3.5342,3.5252,3.5252,3.5252,0,0,3.4888,3.4909,3.4929,3.4974,3.4994,3.5029,3.5008,3.5046,3.5072,3.5067,3.5116,3.5132,3.5164,3.5219,3.5244,3.5234,3.5328,3.5301,3.5304,3.5307,3.5339,3.5347,3.5355,3.5255,3.5255,3.5254,0,0,3.4943,3.4962,3.5001,3.5022,3.5052,3.5062,3.5072,3.5102,3.5111,3.5161,3.5158,3.519,3.5251,3.5273,3.5293,3.5358,3.5354,3.5369,3.5398,3.543,3.5437,3.5443,3.5467,3.5475,3.5374,3.5375,3.5375,0,3.4965,3.5016,3.5022,3.506,3.508,3.5077,3.5117,3.5137,3.5178,3.5192,3.518,3.5256,3.5278,3.5338,3.5354,3.537,3.5382,3.5365,3.5435,3.5442,3.5448,3.547,3.5479,3.5376,3.5376,3.5376,3.5376,0,3.5041,3.5077,3.5105,3.5143,3.5167,3.5206,3.522,3.5243,3.5246,3.5258,3.5309,3.5334,3.5373,3.5389,3.5391,3.545,3.5443,3.5433,3.5411,3.5458,3.5479,3.5487,3.5378,3.5378,3.5377,3.5377,0,0,3.5107,3.5148,3.5158,3.5175,3.5209,3.5237,3.5277,3.5314,3.5334,3.5363,3.5397,3.5449,3.544,3.5463,3.5468,3.5496,3.5546,3.5483,3.5484,3.5494,3.5613,3.5619,3.5629,3.5544,3.5546,3.5547,3.561,0,3.5164,3.5233,3.524,3.5302,3.5335,3.5333,3.5368,3.5393,3.5407,3.5438,3.5454,3.549,3.5476,3.5489,3.5517,3.5534,3.557,3.553,3.5577,3.5579,3.5568,3.564,3.5646,3.5704,3.5618,3.562,3.5621,0,3.524,3.527,3.5334,3.5364,3.5378,3.5409,3.5444,3.5474,3.5503,3.5511,3.5536,3.5538,3.5581,3.5558,3.5618,3.559,3.561,3.5622,3.5624,3.5628,3.5602,3.5645,3.5723,3.5731,3.5634,3.5633,3.5632,0,3.5281,3.5337,3.5383,3.5398,3.5434,3.5456,3.5472,3.5499,3.5521,3.5553,3.5567,3.5604,3.5624,3.5653,3.5666,3.5647,3.5725,3.5702,3.5733,3.5733,3.5748,3.5747,3.5829,3.5763,3.5763,3.5762,3.5762,0,3.5344,3.5384,3.5402,3.543,3.5475,3.5484,3.5529,3.5544,3.5569,3.5601,3.5603,3.5633,3.5649,3.5682,3.5693,3.574,3.575,3.5758,3.576,3.5757,3.5756,3.577,3.5766,3.5765,3.5764,3.5764,3.5763,0,3.5397,3.541,3.546,3.549,3.5498,3.553,3.5556,3.5584,3.5598,3.5639,3.5649,3.567,3.571,3.5726,3.5774,3.5782,3.5836,3.5836,3.5826,3.5826,3.5856,3.5852,3.5949,3.5962,3.5888,3.5888,3.5889,0,3.5435,3.5465,3.5498,3.5519,3.5536,3.557,3.5592,3.5604,3.5627,3.5663,3.5687,3.5726,3.5758,3.5822,3.5843,3.588,3.588,3.5912,3.5886,3.5882,3.588,3.5878,3.5881,3.5916,3.5917,3.5917,3.5918,0,3.5503,3.5508,3.5539,3.5573,3.56,3.5628,3.5655,3.5672,3.5688,3.5715,3.5754,3.5779,3.5828,3.5868,3.5906,3.5925,3.5924,3.5926,3.5935,3.5932,3.5924,3.5928,3.5838,3.5923,3.5923,3.5922,3.5922,3.5922,3.5549,3.5576,3.5603,3.5638,3.566,3.5685,3.5713,3.573,3.5763,3.5803,3.5808,3.5851,3.5881,3.5933,3.5953,3.5987,3.5979,3.5992,3.5996,3.5998,3.6,3.592,3.5995,3.5995,3.5994,3.5994,3.5994,0,3.5616,3.5633,3.5666,3.5703,3.5731,3.5728,3.5758,3.5782,3.5819,3.5846,3.5877,3.5924,3.5962,3.5986,3.6025,3.6048,3.6049,3.6058,3.6056,3.606,3.6005,3.5993,3.6056,3.6056,3.6056,3.6056,3.6056,3.6056,3.5654,3.5699,3.5708,3.5764,3.5782,3.5823,3.584,3.5864,3.5886,3.5937,3.5968,3.5984,3.601,3.6051,3.6086,3.6093,3.6107,3.6116,3.6122,3.607,3.6064,3.6058,3.6046,3.6119,3.6119,3.6174,3.6174,3.6174]},{"header":{"parameterUnit":"m.s-1","parameterCategory":1,"la1":30.2991,"la2":30.254,"lo1":-89.0895,"lo2":-89.0444,"dy":0.0017,"dx":0.0017,"nx":28,"ny":28,"refTime":"2025-06-06T21:00:00:Z","depth":0,"parameterNumber":3,"parameterNumberName":"V-component_of_WINDS"},"data":[0,0,0,0,0,0,0,0,0,0,0,0,0,0,0,0,0,0,0,0,0,0,0,0,0,0,0,0,0,0,0,0,0,0,0,0,0,0,0,0,0,0,0,0,0,0,0,0,0,0,0,0,0,0,0,0,0,0,3.39,3.3901,0,3.398,3.3981,3.3982,3.3997,3.3996,3.3995,3.3995,3.4071,3.4073,3.4076,0,0,0,0,0,0,0,0,0,0,0,0,0,3.3755,3.3758,3.39,3.3901,3.3902,3.398,3.3981,3.3982,3.3997,3.3996,3.3995,3.3995,3.407,3.4073,3.4076,0,0,0,0,0,0,0,0,0,0,0,0,0,3.3825,3.3759,3.39,3.3919,3.3922,3.398,3.3981,3.3983,3.3997,3.3996,3.3995,3.3994,3.4069,3.4073,3.4077,3.412,0,0,3.4089,3.409,0,0,0,0,0,0,0,0,3.3821,3.383,3.3915,3.3918,3.3921,3.3978,3.3958,3.4028,3.3997,3.3968,3.3995,3.3994,3.404,3.4046,3.4063,3.4123,3.4127,3.4089,3.4091,3.4093,3.4094,0,0,0,0,0,0,0,3.3816,3.3827,3.3932,3.3917,3.392,3.3922,3.3931,3.3971,3.4008,3.3971,3.3972,3.3982,3.4042,3.406,3.4065,3.4128,3.4089,3.4092,3.4095,3.4096,3.4226,3.4227,0,0,0,0,0,0,3.3809,3.3823,3.3929,3.3934,3.3868,3.3925,3.3935,3.396,3.4008,3.4015,3.3982,3.3982,3.4053,3.4061,3.4068,3.4121,3.4093,3.4097,3.4099,3.4225,3.4226,3.4228,0,0,0,0,0,0,3.3806,3.3818,3.3926,3.3879,3.3893,3.3929,3.3957,3.3962,3.398,3.4017,3.4023,3.3994,3.4053,3.4062,3.4107,3.4124,3.4098,3.4102,3.4224,3.4226,3.4227,3.4228,0,0,0,0,0,0,3.3801,3.3817,3.3835,3.3879,3.3895,3.3965,3.3958,3.3965,3.3988,3.3988,3.403,3.4036,3.4053,3.4101,3.4111,3.4129,3.4105,3.4222,3.4225,3.4227,3.4226,3.4229,3.4232,0,0,0,0,0,3.3796,3.3831,3.3836,3.3848,3.3919,3.3966,3.3975,3.3996,3.3989,3.4007,3.403,3.4034,3.4121,3.4106,3.4117,3.4136,3.4221,3.4224,3.4226,3.4225,3.4229,3.4232,0,0,0,0,0,0,3.3785,3.3837,3.3843,3.3893,3.3926,3.3969,3.3991,3.3999,3.4033,3.4031,3.4054,3.4063,3.4106,3.4126,3.4108,3.418,3.417,3.4175,3.4166,3.4169,3.4172,3.4166,3.4108,0,0,0,0,0,3.3789,3.3825,3.3868,3.3908,3.3924,3.3955,3.3976,3.399,3.4023,3.4036,3.4063,3.4094,3.4128,3.415,3.4183,3.423,3.4238,3.4248,3.4251,3.4253,3.4256,3.4281,3.4286,3.4236,3.4236,3.4236,0,0,3.3796,3.3829,3.385,3.3906,3.3933,3.3968,3.3966,3.4003,3.4029,3.4041,3.4086,3.4106,3.4142,3.4188,3.4209,3.4205,3.4272,3.4256,3.4257,3.426,3.4284,3.4289,3.4293,3.4237,3.4237,3.4237,0,0,3.3828,3.3857,3.3894,3.3921,3.3962,3.3982,3.3991,3.4034,3.4048,3.4093,3.4103,3.4133,3.4192,3.4217,3.4237,3.4279,3.4283,3.4289,3.4302,3.4326,3.433,3.4334,3.4348,3.4353,3.4292,3.4293,3.4293,0,3.3831,3.3887,3.3911,3.3948,3.3972,3.3987,3.4023,3.4048,3.4097,3.4112,3.4108,3.4181,3.4207,3.4258,3.4268,3.4284,3.4294,3.4284,3.4328,3.4332,3.4336,3.4349,3.4354,3.4293,3.4293,3.4293,3.4293,0,3.3888,3.3926,3.3951,3.4,3.4026,3.4063,3.4091,3.4115,3.4126,3.4147,3.4192,3.4223,3.4262,3.4276,3.4286,3.4328,3.4325,3.4324,3.4315,3.4341,3.4353,3.4359,3.4293,3.4293,3.4293,3.4293,0,0,3.3914,3.3977,3.3985,3.4008,3.4054,3.4083,3.412,3.4161,3.418,3.4214,3.4244,3.4293,3.4293,3.4316,3.433,3.4351,3.4381,3.4348,3.4349,3.4352,3.4428,3.4428,3.4434,3.4385,3.4386,3.4387,3.4425,0,3.395,3.4018,3.4041,3.4096,3.4131,3.4146,3.4178,3.4209,3.4229,3.426,3.4282,3.4316,3.4314,3.4328,3.435,3.4373,3.4397,3.4371,3.4412,3.4413,3.4401,3.444,3.444,3.4474,3.443,3.4431,3.4432,0,3.4001,3.4037,3.4097,3.4139,3.4155,3.4183,3.4222,3.4253,3.4288,3.4301,3.4327,3.4339,3.4376,3.4366,3.4417,3.4398,3.4417,3.443,3.4432,3.4436,3.4423,3.4444,3.4486,3.449,3.444,3.444,3.4439,0,3.4012,3.4076,3.412,3.4138,3.4189,3.4209,3.4231,3.4265,3.4288,3.4322,3.4337,3.4374,3.4394,3.4421,3.4443,3.4433,3.4491,3.4482,3.4501,3.4501,3.4512,3.451,3.4556,3.4525,3.4525,3.4525,3.4525,0,3.4049,3.4085,3.4125,3.4152,3.4192,3.4218,3.4256,3.4278,3.4309,3.4339,3.4354,3.4381,3.4408,3.4439,3.4456,3.4494,3.4503,3.4514,3.4517,3.4512,3.451,3.4523,3.4521,3.4526,3.4526,3.4526,3.4525,0,3.4068,3.4097,3.4146,3.4191,3.4203,3.423,3.4268,3.4293,3.4315,3.4353,3.4363,3.4396,3.4433,3.4457,3.4504,3.4515,3.4557,3.456,3.4545,3.4547,3.4564,3.4562,3.4618,3.4627,3.4591,3.4592,3.4592,0,3.4089,3.4117,3.4166,3.4188,3.4211,3.4246,3.4271,3.4297,3.4321,3.4364,3.4384,3.4422,3.4454,3.4512,3.4539,3.4574,3.4578,3.4596,3.4583,3.4577,3.4577,3.4575,3.4577,3.4597,3.4597,3.4598,3.4598,0,3.4124,3.4137,3.4172,3.4213,3.4242,3.4275,3.4307,3.4324,3.4356,3.4382,3.4421,3.4446,3.4495,3.4532,3.457,3.4591,3.4599,3.4602,3.4608,3.4602,3.4592,3.4596,3.4549,3.46,3.46,3.46,3.4599,3.4599,3.4144,3.4169,3.4208,3.4247,3.4275,3.4305,3.4331,3.4357,3.4391,3.4434,3.4447,3.4487,3.4521,3.4574,3.4595,3.4625,3.4623,3.4632,3.4634,3.4636,3.4636,3.4588,3.4632,3.4632,3.4632,3.4632,3.4632,0,3.4178,3.4204,3.424,3.4286,3.4316,3.4324,3.4361,3.4385,3.4421,3.4453,3.4485,3.4529,3.4566,3.4596,3.4634,3.4652,3.4657,3.4661,3.4659,3.4663,3.4636,3.4626,3.4657,3.4657,3.4656,3.4656,3.4656,3.4656,3.4199,3.4243,3.4261,3.4318,3.4343,3.4384,3.4404,3.4432,3.4458,3.4508,3.4539,3.4559,3.459,3.463,3.4663,3.4671,3.4684,3.4687,3.4695,3.4668,3.4665,3.4663,3.4654,3.4689,3.469,3.472,3.472,3.4721]}]]